Time,TemperatureF,DewpointF,PressureIn,WindDirection,WindDirectionDegrees,WindSpeedMPH,WindSpeedGustMPH,Humidity,HourlyPrecipIn,Conditions,Clouds,dailyrainin,SolarRadiationWatts/m^2,SoftwareType,DateUTC
2013-02-15 00:11:00,51.0,28.0,-100.00,WNW,300,4.0,7.0,40,-99.99,,,0.00,0.000000,,2013-02-15 08:11:00,
2013-02-15 00:21:00,51.0,28.0,-100.00,WNW,300,4.0,7.0,40,-99.99,,,0.00,0.000000,,2013-02-15 08:21:00,
2013-02-15 01:12:00,49.0,26.0,-100.00,NW,314,4.0,6.0,41,-99.99,,,0.00,0.000000,,2013-02-15 09:12:00,
2013-02-15 01:21:00,49.0,26.0,-100.00,NW,314,4.0,6.0,41,-99.99,,,0.00,0.000000,,2013-02-15 09:21:00,
2013-02-15 02:11:00,47.0,29.0,-100.00,North,354,5.0,7.0,50,-99.99,,,0.00,0.000000,,2013-02-15 10:11:00,
2013-02-15 02:21:00,47.0,29.0,-100.00,North,354,5.0,7.0,50,-99.99,,,0.00,0.000000,,2013-02-15 10:21:00,
2013-02-15 03:11:00,44.0,29.0,-100.00,West,280,4.0,5.0,56,-99.99,,,0.00,0.000000,,2013-02-15 11:11:00,
2013-02-15 03:22:00,44.0,29.0,-100.00,West,280,4.0,5.0,56,-99.99,,,0.00,0.000000,,2013-02-15 11:22:00,
2013-02-15 04:11:00,42.0,30.0,-100.00,ENE,75,2.0,4.0,61,-99.99,,,0.00,0.000000,,2013-02-15 12:11:00,
2013-02-15 04:21:00,42.0,30.0,-100.00,ENE,75,2.0,4.0,61,-99.99,,,0.00,0.000000,,2013-02-15 12:21:00,
2013-02-15 05:11:00,45.0,25.0,-100.00,NW,310,5.0,6.0,46,-99.99,,,0.00,0.000000,,2013-02-15 13:11:00,
2013-02-15 05:21:00,45.0,25.0,-100.00,NW,310,5.0,6.0,46,-99.99,,,0.00,0.000000,,2013-02-15 13:21:00,
2013-02-15 06:11:00,47.0,26.0,-100.00,NW,318,6.0,8.0,43,-99.99,,,0.00,0.000000,,2013-02-15 14:11:00,
2013-02-15 06:21:00,47.0,26.0,-100.00,NW,318,6.0,8.0,43,-99.99,,,0.00,0.000000,,2013-02-15 14:21:00,
2013-02-15 07:11:00,49.0,26.0,-100.00,NNW,347,6.0,10.0,40,-99.99,,,0.00,4.000000,,2013-02-15 15:11:00,
2013-02-15 07:21:00,49.0,26.0,-100.00,NNW,347,6.0,10.0,40,-99.99,,,0.00,4.000000,,2013-02-15 15:21:00,
2013-02-15 08:11:00,53.0,27.0,-100.00,North,359,7.0,11.0,36,-99.99,,,0.00,121.000000,,2013-02-15 16:11:00,
2013-02-15 08:22:00,53.0,27.0,-100.00,North,359,7.0,11.0,36,-99.99,,,0.00,121.000000,,2013-02-15 16:22:00,
2013-02-15 08:31:00,53.0,27.0,-100.00,North,359,7.0,11.0,36,-99.99,,,0.00,121.000000,,2013-02-15 16:31:00,
2013-02-15 09:11:00,60.0,28.0,-100.00,North,349,9.0,15.0,30,-99.99,,,0.00,260.000000,,2013-02-15 17:11:00,
2013-02-15 09:21:00,60.0,28.0,-100.00,North,349,9.0,15.0,30,-99.99,,,0.00,260.000000,,2013-02-15 17:21:00,
2013-02-15 09:32:00,60.0,28.0,-100.00,North,349,9.0,15.0,30,-99.99,,,0.00,260.000000,,2013-02-15 17:32:00,
2013-02-15 09:41:00,60.0,28.0,-100.00,North,349,9.0,15.0,30,-99.99,,,0.00,260.000000,,2013-02-15 17:41:00,
2013-02-15 10:11:00,64.0,27.0,-100.00,North,0,11.0,18.0,25,0.00,,,0.00,504.000000,,2013-02-15 18:11:00,
2013-02-15 10:21:00,64.0,27.0,-100.00,North,0,11.0,18.0,25,0.00,,,0.00,504.000000,,2013-02-15 18:21:00,
2013-02-15 10:31:00,64.0,27.0,-100.00,North,0,11.0,18.0,25,0.00,,,0.00,504.000000,,2013-02-15 18:31:00,
2013-02-15 10:41:00,64.0,27.0,-100.00,North,0,11.0,18.0,25,0.00,,,0.00,504.000000,,2013-02-15 18:41:00,
2013-02-15 11:11:00,68.0,25.0,-100.00,North,8,13.0,18.0,20,0.00,,,0.00,725.000000,,2013-02-15 19:11:00,
2013-02-15 11:21:00,68.0,25.0,-100.00,North,8,13.0,18.0,20,0.00,,,0.00,725.000000,,2013-02-15 19:21:00,
2013-02-15 11:32:00,68.0,25.0,-100.00,North,8,13.0,18.0,20,0.00,,,0.00,725.000000,,2013-02-15 19:32:00,
2013-02-15 11:41:00,68.0,25.0,-100.00,North,8,13.0,18.0,20,0.00,,,0.00,725.000000,,2013-02-15 19:41:00,
2013-02-15 12:11:00,71.0,24.0,-100.00,North,358,13.0,21.0,17,0.00,,,0.00,859.000000,,2013-02-15 20:11:00,
2013-02-15 12:21:00,71.0,24.0,-100.00,North,358,13.0,21.0,17,0.00,,,0.00,859.000000,,2013-02-15 20:21:00,
2013-02-15 12:32:00,71.0,24.0,-100.00,North,358,13.0,21.0,17,0.00,,,0.00,859.000000,,2013-02-15 20:32:00,
2013-02-15 12:42:00,71.0,24.0,-100.00,North,358,13.0,21.0,17,0.00,,,0.00,859.000000,,2013-02-15 20:42:00,
2013-02-15 13:11:00,74.0,23.0,-100.00,North,357,11.0,20.0,15,0.00,,,0.00,851.000000,,2013-02-15 21:11:00,
2013-02-15 13:21:00,74.0,23.0,-100.00,North,357,11.0,20.0,15,0.00,,,0.00,851.000000,,2013-02-15 21:21:00,
2013-02-15 13:31:00,74.0,23.0,-100.00,North,357,11.0,20.0,15,0.00,,,0.00,851.000000,,2013-02-15 21:31:00,
2013-02-15 13:42:00,74.0,23.0,-100.00,North,357,11.0,20.0,15,0.00,,,0.00,851.000000,,2013-02-15 21:42:00,
2013-02-15 14:11:00,75.0,23.0,-100.00,North,352,11.0,19.0,14,0.00,,,0.00,799.000000,,2013-02-15 22:11:00,
2013-02-15 14:21:00,75.0,23.0,-100.00,North,352,11.0,19.0,14,0.00,,,0.00,799.000000,,2013-02-15 22:21:00,
2013-02-15 14:31:00,75.0,23.0,-100.00,North,352,11.0,19.0,14,0.00,,,0.00,799.000000,,2013-02-15 22:31:00,
2013-02-15 14:41:00,75.0,23.0,-100.00,North,352,11.0,19.0,14,0.00,,,0.00,799.000000,,2013-02-15 22:41:00,
2013-02-15 15:11:00,74.0,20.0,-100.00,North,359,10.0,19.0,13,0.00,,,0.00,579.000000,,2013-02-15 23:11:00,
2013-02-15 15:21:00,74.0,20.0,-100.00,North,359,10.0,19.0,13,0.00,,,0.00,579.000000,,2013-02-15 23:21:00,
2013-02-15 15:31:00,74.0,20.0,-100.00,North,359,10.0,19.0,13,0.00,,,0.00,579.000000,,2013-02-15 23:31:00,
2013-02-15 15:41:00,74.0,20.0,-100.00,North,359,10.0,19.0,13,0.00,,,0.00,579.000000,,2013-02-15 23:41:00,
2013-02-15 16:11:00,74.0,20.0,-100.00,North,349,9.0,17.0,13,0.00,,,0.00,374.000000,,2013-02-16 00:11:00,
2013-02-15 16:21:00,74.0,20.0,-100.00,North,349,9.0,17.0,13,0.00,,,0.00,374.000000,,2013-02-16 00:21:00,
2013-02-15 16:31:00,74.0,20.0,-100.00,North,349,9.0,17.0,13,0.00,,,0.00,374.000000,,2013-02-16 00:31:00,
2013-02-15 16:41:00,74.0,20.0,-100.00,North,349,9.0,17.0,13,0.00,,,0.00,374.000000,,2013-02-16 00:41:00,
2013-02-15 17:11:00,71.0,27.0,-100.00,NNW,347,6.0,11.0,19,0.00,,,0.00,135.000000,,2013-02-16 01:11:00,
2013-02-15 17:21:00,71.0,27.0,-100.00,NNW,347,6.0,11.0,19,0.00,,,0.00,135.000000,,2013-02-16 01:21:00,
2013-02-15 17:31:00,71.0,27.0,-100.00,NNW,347,6.0,11.0,19,0.00,,,0.00,135.000000,,2013-02-16 01:31:00,
2013-02-15 17:41:00,71.0,27.0,-100.00,NNW,347,6.0,11.0,19,0.00,,,0.00,135.000000,,2013-02-16 01:41:00,
2013-02-15 18:11:00,62.0,28.0,-100.00,NNW,338,3.0,7.0,27,0.00,,,0.00,18.000000,,2013-02-16 02:11:00,
2013-02-15 18:21:00,62.0,28.0,-100.00,NNW,338,3.0,7.0,27,0.00,,,0.00,18.000000,,2013-02-16 02:21:00,
2013-02-15 19:11:00,56.0,30.0,-100.00,NNW,329,5.0,7.0,37,0.00,,,0.00,0.000000,,2013-02-16 03:11:00,
2013-02-15 19:21:00,56.0,30.0,-100.00,NNW,329,5.0,7.0,37,0.00,,,0.00,0.000000,,2013-02-16 03:21:00,
2013-02-15 20:11:00,57.0,29.0,-100.00,NNE,17,5.0,7.0,34,-99.99,,,0.00,0.000000,,2013-02-16 04:11:00,
2013-02-15 20:21:00,57.0,29.0,-100.00,NNE,17,5.0,7.0,34,-99.99,,,0.00,0.000000,,2013-02-16 04:21:00,
2013-02-15 20:31:00,57.0,29.0,-100.00,NNE,17,5.0,7.0,34,-99.99,,,0.00,0.000000,,2013-02-16 04:31:00,
2013-02-15 21:12:00,52.0,28.0,-100.00,NNE,24,2.0,6.0,39,0.00,,,0.00,0.000000,,2013-02-16 05:12:00,
2013-02-15 21:21:00,52.0,28.0,-100.00,NNE,24,2.0,6.0,39,0.00,,,0.00,0.000000,,2013-02-16 05:21:00,
2013-02-15 22:11:00,51.0,26.0,-100.00,NW,317,4.0,8.0,37,-99.99,,,0.00,0.000000,,2013-02-16 06:11:00,
2013-02-15 22:21:00,51.0,26.0,-100.00,NW,317,4.0,8.0,37,-99.99,,,0.00,0.000000,,2013-02-16 06:21:00,
2013-02-15 23:11:00,48.0,25.0,-100.00,NW,311,3.0,7.0,41,0.00,,,0.00,0.000000,,2013-02-16 07:11:00,
2013-02-15 23:21:00,48.0,25.0,-100.00,NW,311,3.0,7.0,41,0.00,,,0.00,0.000000,,2013-02-16 07:21:00,